Starlink 30294

operational
NORAD ID: 57651 Int'l Des: 2023-122 Owner: SPXS Country: US Constellation: starlink
LEOCIRCULAR

关于 Starlink 30294

正在加载描述...

实时位置

正在加载3D地球...

即将过境

高度历史

Altitude vs Time

uPlot chart will show altitude changes over time

两行轨道根数

1 57651U 23122V 25352.50681672 -.00000363 00000-0 -11769-4 0 9998
2 57651 43.0031 162.7128 0001205 259.0743 100.9964 15.02533875130127
Epoch: Dec 18, 2025 • Age: 31 hours

当前状态

高度 558.4 km
速度 7.58 km/s
星下点 6.49°N, 48.42°W
发射日期 Aug 17, 2023
运行时间 2.3 years
类型 internet

技术详情

分类 Payload
质量 730.00 kg
干质量 700.00 kg
总质量 730.00 kg
长度 0.30 m
直径 4.10 m
跨度 29.00 m
形状 Box + pan
制造商 SPXS
平台类型 Starlink V2M
阶段状态 In Orbit
所有者/国家 SPXS/US

大型星座

Loading constellations...